• In Belarus
  • List of Countries
  • For 7 days
  • Water Temperature
  • Satellite Maps
  • Weather Map
  • Weather Widgets
  • user-avatar
    Login

    Hourly Weather Hrazdan

    Today, 19 July, Friday

    Time Temperature Precipitation Wind Pressure Humidity
    00:00 +17°C° 0 mm 2 mps 611 mmHg 73%
    01:00 +16°C° 0 mm 2 mps 611 mmHg 75%
    02:00 +16°C° 0 mm 2 mps 611 mmHg 77%
    03:00 +15°C° 0 mm 2 mps 611 mmHg 78%
    04:00 +16°C° 0 mm 2 mps 611 mmHg 79%
    05:00 +16°C° 0 mm 2 mps 612 mmHg 80%
    06:00 +17°C° 0 mm 2 mps 612 mmHg 80%
    07:00 +18°C° 0 mm 2 mps 613 mmHg 76%
    08:00 +20°C° 0 mm 2 mps 614 mmHg 71%
    09:00 +23°C° 0 mm 2 mps 614 mmHg 67%
    10:00 +24°C° 0 mm 3 mps 614 mmHg 63%
    11:00 +25°C° 0 mm 3 mps 615 mmHg 59%
    12:00 +25°C° 0 mm 3 mps 615 mmHg 56%
    13:00 +25°C° 0.1 mm 3 mps 615 mmHg 57%
    14:00 +25°C° 0.1 mm 3 mps 614 mmHg 58%
    15:00 +25°C° 0.1 mm 3 mps 614 mmHg 60%
    16:00 +24°C° 0.1 mm 3 mps 614 mmHg 65%
    17:00 +22°C° 0.1 mm 3 mps 614 mmHg 70%
    18:00 +21°C° 0.1 mm 4 mps 613 mmHg 76%
    19:00 +20°C° 0 mm 3 mps 613 mmHg 79%
    20:00 +18°C° 0 mm 3 mps 613 mmHg 83%
    21:00 +17°C° 0 mm 3 mps 613 mmHg 86%
    22:00 +17°C° 0 mm 3 mps 613 mmHg 87%
    23:00 +16°C° 0 mm 3 mps 614 mmHg 87%

    Tomorrow, 20 July, Saturday

    Time Temperature Precipitation Wind Pressure Humidity
    00:00 +16°C° 0 mm 3 mps 614 mmHg 88%
    01:00 +16°C° 0 mm 2 mps 614 mmHg 88%
    02:00 +16°C° 0 mm 2 mps 614 mmHg 89%
    03:00 +15°C° 0 mm 2 mps 614 mmHg 89%
    04:00 +16°C° 0 mm 2 mps 614 mmHg 89%
    05:00 +16°C° 0 mm 2 mps 615 mmHg 89%
    06:00 +16°C° 0 mm 2 mps 615 mmHg 89%
    07:00 +18°C° 0 mm 2 mps 615 mmHg 82%
    08:00 +20°C° 0 mm 2 mps 616 mmHg 76%
    09:00 +21°C° 0 mm 2 mps 616 mmHg 70%
    10:00 +23°C° 0 mm 2 mps 617 mmHg 67%
    11:00 +24°C° 0 mm 3 mps 617 mmHg 64%
    12:00 +26°C° 0 mm 3 mps 617 mmHg 61%
    13:00 +26°C° 0 mm 3 mps 617 mmHg 61%
    14:00 +26°C° 0 mm 3 mps 617 mmHg 61%
    15:00 +26°C° 0 mm 3 mps 617 mmHg 61%
    16:00 +25°C° 0 mm 3 mps 616 mmHg 66%
    17:00 +25°C° 0 mm 3 mps 616 mmHg 71%
    18:00 +24°C° 0 mm 3 mps 616 mmHg 75%
    19:00 +21°C° 0 mm 3 mps 616 mmHg 79%
    20:00 +20°C° 0 mm 3 mps 616 mmHg 83%
    21:00 +18°C° 0 mm 3 mps 616 mmHg 87%
    22:00 +18°C° 0 mm 3 mps 616 mmHg 86%
    23:00 +17°C° 0 mm 3 mps 616 mmHg 85%

    Day after tomorrow, 21 July, Sunday

    Time Temperature Precipitation Wind Pressure Humidity
    00:00 +17°C° 0 mm 2 mps 616 mmHg 84%
    01:00 +17°C° 0 mm 2 mps 616 mmHg 83%
    02:00 +16°C° 0 mm 2 mps 615 mmHg 82%
    03:00 +16°C° 0 mm 2 mps 615 mmHg 81%
    04:00 +16°C° 0 mm 2 mps 615 mmHg 80%
    05:00 +17°C° 0 mm 2 mps 616 mmHg 79%
    06:00 +17°C° 0 mm 2 mps 616 mmHg 78%
    07:00 +19°C° 0 mm 2 mps 617 mmHg 72%
    08:00 +21°C° 0 mm 2 mps 617 mmHg 66%
    09:00 +24°C° 0 mm 2 mps 618 mmHg 60%
    10:00 +25°C° 0 mm 2 mps 618 mmHg 58%
    11:00 +26°C° 0 mm 3 mps 618 mmHg 56%
    12:00 +27°C° 0 mm 3 mps 618 mmHg 53%
    13:00 +28°C° 0 mm 3 mps 618 mmHg 55%
    14:00 +28°C° 0 mm 3 mps 617 mmHg 56%
    15:00 +28°C° 0 mm 4 mps 617 mmHg 57%
    16:00 +27°C° 0 mm 3 mps 616 mmHg 62%
    17:00 +26°C° 0 mm 3 mps 616 mmHg 66%
    18:00 +25°C° 0 mm 3 mps 616 mmHg 71%
    19:00 +22°C° 0 mm 3 mps 616 mmHg 71%
    20:00 +21°C° 0 mm 3 mps 615 mmHg 72%
    21:00 +20°C° 0 mm 3 mps 615 mmHg 72%
    22:00 +19°C° 0 mm 3 mps 615 mmHg 73%
    23:00 +18°C° 0 mm 2 mps 615 mmHg 73%

    22 July, Monday

    Time Temperature Precipitation Wind Pressure Humidity
    00:00 +17°C° 0 mm 2 mps 614 mmHg 74%
    01:00 +17°C° 0 mm 2 mps 614 mmHg 74%
    02:00 +17°C° 0 mm 2 mps 614 mmHg 74%
    03:00 +17°C° 0 mm 2 mps 614 mmHg 74%
    04:00 +17°C° 0 mm 2 mps 614 mmHg 74%
    05:00 +17°C° 0 mm 2 mps 614 mmHg 73%
    06:00 +18°C° 0 mm 2 mps 614 mmHg 73%
    07:00 +20°C° 0 mm 2 mps 615 mmHg 67%
    08:00 +23°C° 0 mm 2 mps 616 mmHg 61%
    09:00 +25°C° 0 mm 2 mps 616 mmHg 55%
    10:00 +27°C° 0 mm 2 mps 616 mmHg 53%
    11:00 +28°C° 0 mm 2 mps 616 mmHg 50%
    12:00 +29°C° 0 mm 3 mps 616 mmHg 48%
    13:00 +29°C° 0 mm 3 mps 616 mmHg 50%
    14:00 +29°C° 0 mm 3 mps 616 mmHg 51%
    15:00 +29°C° 0 mm 3 mps 615 mmHg 53%
    16:00 +28°C° 0.1 mm 3 mps 615 mmHg 59%
    17:00 +27°C° 0.1 mm 3 mps 614 mmHg 65%
    18:00 +25°C° 0.1 mm 3 mps 613 mmHg 71%
    19:00 +22°C° 0 mm 3 mps 613 mmHg 74%
    20:00 +21°C° 0 mm 3 mps 613 mmHg 77%
    21:00 +19°C° 0 mm 3 mps 613 mmHg 80%
    22:00 +18°C° 0 mm 3 mps 613 mmHg 79%
    23:00 +18°C° 0 mm 2 mps 612 mmHg 79%

    23 July, Tuesday

    Time Temperature Precipitation Wind Pressure Humidity
    00:00 +17°C° 0 mm 2 mps 612 mmHg 78%
    01:00 +17°C° 0 mm 2 mps 612 mmHg 79%
    02:00 +16°C° 0 mm 2 mps 612 mmHg 79%
    03:00 +16°C° 0 mm 2 mps 612 mmHg 80%
    04:00 +16°C° 0 mm 2 mps 612 mmHg 80%
    05:00 +17°C° 0 mm 2 mps 612 mmHg 81%
    06:00 +17°C° 0 mm 2 mps 612 mmHg 82%
    07:00 +19°C° 0 mm 2 mps 613 mmHg 76%
    08:00 +21°C° 0 mm 2 mps 613 mmHg 71%
    09:00 +23°C° 0 mm 2 mps 614 mmHg 66%
    10:00 +24°C° 0 mm 3 mps 614 mmHg 64%
    11:00 +25°C° 0 mm 3 mps 614 mmHg 62%
    12:00 +26°C° 0 mm 3 mps 614 mmHg 59%
    13:00 +26°C° 0.3 mm 3 mps 613 mmHg 61%
    14:00 +26°C° 0.3 mm 3 mps 613 mmHg 62%
    15:00 +26°C° 0.3 mm 3 mps 612 mmHg 64%
    16:00 +25°C° 0.3 mm 3 mps 612 mmHg 67%
    17:00 +24°C° 0.3 mm 3 mps 612 mmHg 71%
    18:00 +22°C° 0.3 mm 3 mps 611 mmHg 75%
    19:00 +21°C° 0 mm 3 mps 611 mmHg 78%
    20:00 +19°C° 0 mm 3 mps 611 mmHg 82%
    21:00 +18°C° 0 mm 3 mps 611 mmHg 85%
    22:00 +18°C° 0 mm 3 mps 611 mmHg 85%
    23:00 +17°C° 0 mm 2 mps 611 mmHg 84%

    24 July, Wednesday

    Time Temperature Precipitation Wind Pressure Humidity
    00:00 +17°C° 0 mm 2 mps 611 mmHg 83%
    01:00 +17°C° 0 mm 2 mps 611 mmHg 82%
    02:00 +16°C° 0 mm 2 mps 611 mmHg 82%
    03:00 +16°C° 0 mm 1 mps 611 mmHg 81%
    04:00 +18°C° 0 mm 1 mps 611 mmHg 80%
    05:00 +18°C° 0 mm 1 mps 611 mmHg 79%
    06:00 +19°C° 0 mm 1 mps 612 mmHg 78%
    07:00 +21°C° 0 mm 1 mps 612 mmHg 72%
    08:00 +23°C° 0 mm 1 mps 613 mmHg 66%
    09:00 +25°C° 0 mm 2 mps 613 mmHg 60%
    10:00 +26°C° 0.1 mm 3 mps 614 mmHg 52%
    11:00 +28°C° 0.1 mm 3 mps 614 mmHg 44%
    12:00 +29°C° 0.1 mm 4 mps 614 mmHg 36%
    13:00 +29°C° 0.1 mm 4 mps 614 mmHg 35%
    14:00 +30°C° 0.1 mm 4 mps 614 mmHg 34%
    15:00 +30°C° 0.1 mm 5 mps 613 mmHg 32%
    16:00 +29°C° 0 mm 4 mps 613 mmHg 39%
    17:00 +28°C° 0 mm 4 mps 612 mmHg 47%
    18:00 +27°C° 0 mm 3 mps 612 mmHg 54%
    19:00 +24°C° 0 mm 3 mps 612 mmHg 60%
    20:00 +21°C° 0 mm 3 mps 612 mmHg 67%
    21:00 +19°C° 0 mm 2 mps 611 mmHg 73%
    22:00 +19°C° 0 mm 2 mps 611 mmHg 72%
    23:00 +19°C° 0 mm 2 mps 612 mmHg 71%
    Show more